Home   Weather   Szeged   Past weeks

Flag for Hungary Past Weather in Szeged, Hungary — Yesterday and Last 2 Weeks

Now
42 °F

Overcast.


Feels Like: 39 °F
Forecast: 29 / 46 °F
Wind: 5 mph from Northwest

Location: Szeged

Current Time: Feb 25, 2017 at 3:29:08 am

Latest Report: Feb 25, 2017 at 2:00 am


Visibility: 19 mi

Pressure: 30.02 "Hg

Humidity: 64%

Dew Point: 31 °F

Location of SzegedLocation

Past Weather in Szeged — Graph

°F

Szeged Temperature Yesterday

Maximum temperature yesterday: 54 °F (at 12:00 pm)
Minimum temperature yesterday: 42 °F (at 7:00 pm)
Average temperature yesterday: 47 °F

High & Low Weather Summary for the Past Weeks

 TemperatureHumidityPressure
High61 °F (Feb 23, 4:00 pm)100% (Feb 15, 1:00 pm)30.68 "Hg (Feb 15, 1:00 pm)
Low20 °F (Feb 15, 5:00 am)50% (Feb 24, 11:00 pm)29.70 "Hg (Feb 24, 4:00 am)
Average34 °F84%30.30 "Hg
* Reported Feb 10 2:00 am — Feb 25 2:00 am, Szeged, Weather by CustomWeather, © 2017

Note: Actual official high and low records may vary slightly from our data, if they occured in-between our weather recording intervals... More about our weather records

Advertising

Szeged Weather History for the Previous 24 Hours

Scroll right to see more
 ConditionsComfort  
Time TempWeatherWind HumidityBarometerVisibility
2:00 am
Sat, Feb 25
42 °FOvercast.5 mph64%30.02 "Hg19 mi
1:00 am44 °FOvercast.5 mph60%29.99 "Hg19 mi
12:00 am44 °FOvercast.6 mph58%29.98 "Hg19 mi
11:00 pm
Fri, Feb 24
46 °FOvercast.7 mph50%29.95 "Hg19 mi
10:00 pm46 °FOvercast.8 mph54%29.93 "Hg19 mi
9:00 pm45 °FOvercast.5 mph64%29.90 "Hg19 mi
8:00 pm43 °FOvercast.3 mph76%29.89 "Hg19 mi
7:00 pm42 °FLight rain. Overcast.1 mph85%29.88 "Hg19 mi
6:00 pm43 °FLight rain. Overcast.8 mph78%29.88 "Hg19 mi
5:00 pm45 °FLight rain. Overcast.6 mph73%29.84 "Hg19 mi
4:00 pm47 °FLight rain. Overcast.8 mph64%29.83 "Hg19 mi
3:00 pm50 °FOvercast.7 mph52%29.80 "Hg19 mi
2:00 pm51 °FOvercast.5 mph51%29.80 "Hg19 mi
1:00 pm50 °FSprinkles. Overcast.7 mph65%29.78 "Hg19 mi
12:00 pm54 °FOvercast.6 mph61%29.75 "Hg19 mi
11:00 am52 °FOvercast.6 mph67%29.75 "Hg19 mi
10:00 am51 °FOvercast.7 mph64%29.73 "Hg19 mi
9:00 am51 °FOvercast.7 mph65%29.72 "Hg19 mi
8:00 am48 °FOvercast.8 mph71%29.72 "Hg25 mi
7:00 am45 °FOvercast.7 mph76%29.72 "Hg25 mi
6:00 am44 °FPassing clouds.8 mph77%29.71 "Hg19 mi
5:00 am46 °FPassing clouds.9 mph74%29.70 "Hg19 mi
4:00 am45 °FPassing clouds.8 mph78%29.70 "Hg19 mi
3:00 am43 °FClear.6 mph81%29.72 "Hg19 mi
Weather by CustomWeather, © 2017

See weather overviewHow to use our weather pages